SCP
-0 -0 0 0 -0 -0 0 0 0 -0 -0 -0 -0 0 0 -0 0 -0 -0 0 0 -0 -0 -0 0 -0 0 0 0 0 0 0 0 0 -0 -0 -0 -0 -0 0 0 -0 -0 0 -0 0 0 0 0
-0 -0 0 0 -0 -0 -0 -0 0 0 0 -0 -0 0 0 -0 -0 -0 0 0 0 -0 -0 -0 -0 -0 0 0 0 0 0 0 0 0 0 0 -0 -0 0 0 -0 0 0 0 -0 -0 0 -0 -0
-0 0 0 0 0 0 0 0 -0 -0 -0 -0 -0 0 0 -0 -0 0 0 -0 0 0 0 -0 -0 -0 -0 0 -0 0 0 0 -0 0 -0 0 -0 -0 -0 0 -0 -0 -0 0 -0 -0 -0 -0 -0
0 0 0 0 0 0 0 0 -0 -0 0 0 0 0 -0 0 -0 0 -0 -0 0 0 -0 -0 -0 -0 -0 0 -0 -0 -0 -0 0 -0 -0 -0 0 0 -0 -0 -0 0 -0 -0 0 0 0 0 0
0 0 0 0 0 0 0 0 0 0 0 0 0 0 0 0 -0 0 -0 -0 0 0 -0 -0 -0 -0 -0 -0 0 -0 0 -0 -0 -0 -0 -0 0 0 0 0 0 0 0 0 0 0 0 0 0
0 0 0 0 0 0 0 0 0 0 0 0 0 0 0 0 0 -0 -0 -0 -0 0 0 -0 -0 -0 -0 0 0 0 0 0 0 -0 -0 -0 -0 0 0 -0 0 0 -0 0 0 0 0 0 0
0 0 0 0 0 0 0 0 0 0 0 0 0 0 0 0 0 -0 0 0 -0 -0 0 0 0 0 0 0 0 0 0 0 0 -0 -0 -0 -0 -0 -0 0 0 0 0 0 0 0 0 0 0
0 0 0 0 0 0 0 0 0 0 0 0 0 0 0 0 0 0 0 0 0 -0 -0 -0 0 0 0 0 0 0 0 0 0 0 -0 -0 -0 -0 -0 -0 0 0 0 0 0 0 0 0 0
0 0 0 0 0 0 0 0 0 0 0 0 0 0 0 0 0 -0 -0 -0 -0 -0 -0 0 0 0 0 0 0 0 0 0 0 0 0 0 0 -0 -0 -0 0 0 0 0 0 0 0 0 0
0 0 0 0 0 0 0 0 0 0 0 0 0 0 0 0 0 0 0 -0 -0 -0 -0 -0 -0 -0 -0 0 0 0 0 0 0 0 0 0 0 0 0 0 0 0 0 0 0 0 0 0 0
0 0 0 0 0 0 0 0 0 0 0 0 0 0 0 0 0 0 0 0 -0 -0 -0 -0 -0 -0 -0 -0 0 0 0 0 0 0 0 0 0 0 0 0 0 0 0 0 0 0 0 0 0
0 0 0 0 0 0 0 0 0 0 0 0 0 0 0 0 0 0 0 0 0 -0 -0 -0 -0 -0 -0 -0 -0 -0 0 0 0 0 0 0 0 0 0 0 0 0 0 0 0 0 0 0 0
0 0 0 0 0 0 0 0 0 0 0 0 0 0 0 0 -0 -0 -0 -0 -0 -0 0 -0 -0 -0 -0 0 0 0 0 0 -0 0 0 0 0 0 0 0 0 0 0 0 0 0 0 0 0
0 0 0 0 0 0 0 0 0 0 0 0 0 0 0 0 0 0 0 0 -0 -0 -0 0 -0 -0 -0 -0 -0 -0 0 0 0 0 0 -0 0 0 0 0 0 0 0 0 0 0 0 0 0
0 0 0 0 0 0 0 0 0 0 0 0 0 0 0 0 0 0 0 0 0 0 0 0 0 0 -0 -0 -0 0 0 0 0 0 0 0 0 0 0 0 0 0 0 0 0 0 0 0 0
0 0 0 0 0 0 0 0 0 0 0 0 0 0 0 0 0 0 0 0 0 0 0 0 0 0 0 0 0 0 0 0 0 0 0 0 0 0 0 0 0 0 0 0 0 0 0 0 0
0 0 0 0 0 0 0 0 0 0 0 0 0 0 0 0 0 0 0 0 0 0 0 0 0 0 0 0 0 0 0 0 0 0 0 0 0 0 0 0 0 0 0 0 0 0 0 0 0
0 0 0 0 0 0 0 0 0 0 0 0 0 0 0 0 0 0 0 0 0 0 0 0 0 0 0 0 0 0 0 0 0 0 0 0 0 0 0 0 0 0 0 0 0 0 0 0 0
0 0 0 0 0 0 0 0 0 0 0 0 0 0 0 0 0 0 0 0 0 0 0 0 0 0 0 0 0 0 0 0 0 0 0 0 0 0 0 0 0 0 0 0 0 0 0 0 0
0 0 0 0 0 0 0 0 0 0 0 0 0 0 0 0 0 0 0 0 0 0 0 0 0 0 0 0 0 0 0 0 0 0 0 0 0 0 0 0 0 0 0 0 0 0 0 0 0
0 0 0 0 0 0 0 -0 0 0 0 0 0 0 0 0 0 0 0 0 0 0 0 0 0 0 0 0 0 0 0 0 0 0 0 0 0 0 0 0 0 0 0 0 0 0 0 0 0
0 0 0 0 0 0 -0 -0 0 0 -0 0 0 0 0 0 0 0 0 0 0 0 0 0 0 0 0 0 0 0 0 0 0 0 0 0 0 0 0 0 0 0 0 0 0 0 0 0 0
0 0 0 0 0 0 0 0 -0 -0 0 0 -0 0 0 0 0 0 0 0 0 0 0 0 0 0 0 0 0 0 0 0 0 0 0 0 0 0 0 0 0 0 0 0 0 0 0 0 0
0 0 0 0 0 0 0 0 -0 0 0 0 0 0 -0 0 0 0 0 0 0 0 0 0 0 0 0 0 0 0 0 0 0 0 0 0 0 0 0 0 0 0 0 0 0 0 0 0 0
0 0 0 0 0 0 0 0 0 0 0 0 0 0 0 0 0 0 0 0 0 0 0 0 0 0 0 0 0 0 0 0 0 0 0 0 0 0 0 0 0 0 0 0 0 0 0 0 0
0 0 0 0 0 0 -0 0 0 0 0 0 0 0 0 0 0 0 0 0 0 0 0 0 0 0 0 0 0 0 0 0 0 0 0 0 0 0 0 0 0 0 0 0 0 0 0 0 0
0 0 0 0 0 0 0 0 0 0 0 0 0 0 0 0 0 0 0 0 0 0 0 0 0 0 0 0 0 0 0 0 0 0 0 0 0 0 0 0 0 0 0 0 0 0 0 0 0
0 0 0 0 0 0 0 0 0 0 0 0 0 0 0 0 0 0 0 0 0 0 0 0 0 0 0 0 0 0 0 0 0 0 0 0 0 0 0 0 0 0 0 0 0 0 0 0 0
0 0 0 0 0 0 0 0 0 0 0 0 0 0 0 0 0 0 0 0 0 0 0 0 0 0 0 0 0 0 0 0 0 0 0 0 0 0 0 0 0 0 0 0 0 0 0 0 0
0 0 0 0 0 0 0 0 0 0 0 0 0 0 0 0 0 0 0 0 0 0 0 0 0 0 0 0 0 0 0 0 0 0 0 0 0 0 0 0 0 0 0 0 0 0 0 0 0
Wind_Speed_500mb
39 33 16 10 12 6 8 9 4 8 6 8 4 11 20 15 18 8 20 14 23 26 20 21 22 20 17 14 11 12 11 19 20 19 18 14 8 10 9 11 14 22 17 17 11 15 18 20 21
37 30 11 15 14 13 14 13 10 7 10 8 5 2 5 12 13 14 22 20 25 24 21 21 20 20 14 8 7 12 9 7 9 14 16 18 18 12 13 13 19 17 14 16 18 12 16 17 19
33 18 15 8 9 4 10 9 18 15 14 5 4 2 6 9 9 21 13 26 25 23 21 23 25 23 12 5 3 8 11 9 6 4 9 14 21 14 14 17 18 15 11 14 18 14 11 15 16
25 7 11 17 10 7 10 15 21 22 13 6 2 10 9 8 11 14 22 27 26 24 22 25 28 25 15 8 4 4 11 15 9 2 11 12 17 16 13 20 18 17 11 11 15 11 10 11 12
15 12 15 16 10 9 9 15 19 19 17 15 9 12 8 8 14 18 24 27 26 24 20 24 27 22 14 9 7 9 13 15 14 6 5 4 15 15 16 13 17 18 12 8 11 10 8 7 8
15 7 15 19 19 12 10 17 16 15 13 15 11 11 12 14 19 20 24 25 24 24 23 24 24 21 16 11 8 7 15 18 17 14 9 7 5 15 14 18 16 18 16 15 9 9 6 5 3
15 13 24 20 18 18 13 16 18 16 16 16 8 11 13 17 18 21 25 25 24 25 28 25 26 24 18 14 10 10 12 20 21 15 16 12 8 9 15 15 15 15 17 17 14 11 10 9 7
10 10 22 22 22 25 16 17 7 12 14 14 10 12 17 22 21 24 26 24 23 24 23 25 23 24 22 19 15 10 10 14 19 18 17 17 16 15 15 18 18 18 17 19 17 15 14 14 13
6 11 21 31 29 25 20 19 11 3 6 14 14 8 20 26 24 25 24 25 26 27 30 32 26 24 21 19 21 18 15 13 15 18 18 21 19 15 16 17 19 17 18 18 18 18 20 20 19
16 17 27 27 23 26 22 24 20 13 21 19 16 13 19 22 27 28 28 29 31 32 31 31 32 32 28 26 26 22 21 19 17 19 21 22 16 15 20 24 23 25 23 22 22 24 24 24 24
11 20 27 12 23 17 23 24 16 21 19 26 29 25 22 25 28 28 26 26 27 27 29 32 31 30 30 32 29 25 26 23 23 24 24 24 28 29 32 29 28 27 28 28 27 29 29 29 26
16 24 16 9 12 12 21 22 20 30 22 3 11 21 25 27 29 30 29 28 26 26 27 29 33 33 32 30 31 30 31 31 30 29 29 29 29 32 30 29 30 30 28 28 29 31 30 30 33
25 23 16 18 13 15 10 23 27 29 31 10 15 20 24 24 27 27 26 25 26 27 27 26 27 32 33 34 34 33 34 35 33 32 34 35 33 32 30 33 34 38 34 36 35 35 35 36 38
4 24 20 14 23 14 15 29 24 27 29 28 24 23 25 26 28 27 29 29 30 27 27 27 28 29 30 34 35 35 36 35 35 37 37 40 40 39 37 36 37 38 40 39 40 39 39 41 42
13 11 23 26 18 17 16 35 48 42 24 37 38 34 32 31 28 32 30 31 29 29 28 29 30 31 35 33 37 40 38 40 42 40 39 42 44 46 45 44 44 42 40 40 42 45 46 48 48
11 11 16 14 31 14 18 35 31 56 50 51 44 48 48 44 40 35 32 30 30 30 31 31 34 35 38 41 40 41 41 41 40 43 45 47 45 46 48 50 51 49 47 46 46 47 49 50 50
17 18 29 13 27 17 29 26 22 24 30 54 59 57 53 49 48 45 40 36 33 32 34 36 40 42 42 44 44 45 43 44 43 44 46 44 48 48 49 51 50 48 51 54 53 51 50 49 50
24 30 23 25 13 28 27 39 24 11 27 37 41 51 54 55 55 49 46 43 42 44 43 42 44 47 47 47 46 46 51 49 49 49 52 50 48 52 52 52 51 50 51 53 54 52 51 52 51
9 25 27 24 10 13 34 40 40 47 49 40 43 42 43 49 49 49 50 49 48 41 42 50 49 43 44 47 47 47 47 46 47 48 51 50 50 51 57 57 55 53 55 56 53 50 52 55 50
38 27 28 10 8 12 26 39 38 39 51 58 60 55 51 48 47 46 43 44 47 50 51 54 55 47 47 44 43 44 38 44 44 45 47 47 49 50 53 58 61 57 54 55 56 55 58 59 52
39 40 30 21 3 19 25 44 44 40 64 67 66 64 58 57 57 49 49 49 49 52 55 51 51 55 53 51 46 44 44 41 39 46 54 55 55 54 52 54 59 60 56 65 66 66 65 68 66
40 30 35 30 13 17 15 23 32 22 36 30 51 60 58 57 59 57 53 47 44 47 41 53 52 55 57 55 55 53 51 50 49 49 52 53 55 56 54 50 53 59 61 67 68 67 68 66 72
22 26 24 28 29 22 37 18 25 24 37 30 32 36 43 45 43 45 42 40 37 37 49 43 47 53 53 56 59 58 59 58 58 47 46 51 52 55 54 52 52 56 59 63 65 68 65 67 69
12 16 14 13 15 17 37 32 41 34 38 26 23 25 37 38 34 35 28 31 41 37 42 44 46 46 47 50 52 54 56 57 56 54 50 51 53 50 51 54 54 57 57 59 60 60 65 65 68
33 29 11 12 13 24 9 28 50 10 16 13 12 19 24 25 31 32 32 34 32 33 35 41 43 43 47 51 55 56 57 55 52 49 48 43 45 44 46 48 51 52 54 55 56 56 58 63 68
40 32 12 18 20 22 28 21 29 9 22 35 36 17 24 30 23 27 24 24 24 32 33 38 41 45 49 51 53 52 49 47 43 41 39 35 34 33 32 35 39 43 47 49 53 56 59 60 64
25 30 41 28 1 5 21 37 36 33 25 17 22 33 35 31 28 31 28 32 36 35 32 36 40 43 41 36 33 32 33 33 35 37 38 37 37 38 40 38 38 40 42 43 47 51 55 58 60
46 22 23 23 17 32 30 41 28 5 11 15 29 39 41 35 32 38 39 32 34 36 38 39 37 33 29 27 26 24 22 21 21 22 24 26 29 31 34 36 38 40 41 42 43 50 53 55 56
30 32 19 19 23 20 28 28 38 34 28 25 22 25 29 31 26 27 32 34 35 36 34 33 31 30 29 28 27 25 22 20 18 19 21 24 27 30 32 34 36 39 42 44 48 51 52 55 58
48 51 43 19 28 24 33 34 14 4 11 16 32 37 26 23 26 25 29 34 33 32 33 33 33 31 29 26 23 21 18 18 20 22 24 27 29 32 34 35 36 36 37 40 43 46 50 52 53
Wind_Direction_500mb
341 341 315 268 245 232 127 113 48 136 181 78 62 320 9 21 1 33 143 145 140 145 163 162 162 164 159 148 141 137 149 172 182 185 179 177 197 188 179 147 134 112 108 113 98 94 87 90 94
339 338 285 272 261 229 103 124 154 118 78 107 112 234 234 82 58 112 138 151 146 146 149 164 165 167 165 167 140 136 143 136 172 196 199 195 192 202 188 158 140 141 127 109 118 129 89 94 96
339 313 279 274 281 313 105 155 117 128 137 153 165 331 25 67 79 138 141 153 149 149 147 179 165 167 171 166 124 145 152 125 121 102 172 183 164 172 193 174 158 146 147 116 118 130 96 94 99
335 266 234 253 223 65 102 124 133 148 160 180 179 138 103 89 126 151 150 154 151 151 167 167 166 172 172 165 117 114 156 157 162 81 169 152 162 174 165 173 159 167 164 146 125 140 111 105 111
304 257 262 249 206 131 128 125 155 165 150 154 189 109 97 124 142 146 156 156 158 157 180 173 171 178 181 175 148 137 172 177 184 205 203 190 179 185 174 174 172 175 191 174 150 153 141 126 121
295 276 245 234 215 165 166 160 170 172 147 133 179 134 105 148 145 152 158 161 165 164 179 181 187 193 193 187 174 174 171 184 204 209 192 238 223 191 192 194 192 187 201 199 194 177 181 181 174
284 269 259 272 208 190 179 175 194 181 162 163 134 146 121 159 164 165 163 167 172 174 181 191 195 201 205 207 209 194 188 188 205 210 204 212 235 241 221 207 214 209 211 209 225 207 214 227 241
272 270 257 238 238 213 154 185 212 220 159 133 175 169 156 169 166 160 165 176 178 181 189 188 199 205 211 214 218 224 227 215 209 215 198 206 230 240 229 233 224 220 222 228 229 235 239 245 254
260 245 239 236 232 218 154 208 184 209 197 201 175 120 131 157 166 163 171 183 187 191 206 185 198 215 206 223 219 218 222 234 231 229 220 210 224 248 252 249 251 252 243 243 246 248 253 258 263
227 233 240 252 239 236 191 215 194 208 202 199 178 151 160 166 173 180 185 189 195 203 205 203 199 206 209 209 232 227 226 227 227 232 235 230 223 238 227 241 236 240 247 248 252 254 256 261 268
214 239 243 271 270 253 205 211 201 221 223 220 202 189 176 175 185 194 196 203 202 206 213 214 212 209 216 214 225 226 226 232 228 227 228 231 225 229 235 241 241 242 246 248 254 254 257 262 262
246 242 261 293 236 242 217 225 212 224 222 64 187 176 181 184 194 200 202 204 208 204 210 222 218 219 216 219 228 226 227 233 238 237 234 232 235 235 245 250 254 251 249 258 251 260 261 259 260
236 248 254 243 252 244 281 235 232 225 231 192 189 179 189 195 198 202 206 212 211 215 215 224 225 224 224 228 231 226 235 236 238 235 242 245 242 242 245 247 252 259 255 258 261 262 262 266 268
354 251 245 254 237 241 258 247 233 236 229 222 215 209 207 208 204 205 207 211 214 217 221 224 231 232 232 232 236 238 241 241 240 237 240 241 243 248 250 249 252 251 258 255 258 259 263 267 268
253 266 234 241 237 239 247 257 243 237 240 238 231 228 224 221 215 215 216 215 217 223 226 229 230 233 233 244 238 240 242 241 244 246 244 247 246 244 246 251 254 256 256 260 260 262 263 265 270
231 237 234 215 212 219 198 258 237 235 236 242 240 236 235 233 231 229 223 222 223 222 227 232 238 241 243 238 246 242 244 245 247 249 244 242 244 245 246 250 252 253 255 257 260 262 264 266 268
211 245 222 231 208 215 203 263 263 225 235 240 240 239 240 240 239 235 233 232 228 231 237 235 242 250 247 245 237 249 247 248 250 249 251 247 247 249 246 247 253 255 255 257 260 261 262 263 267
223 223 237 228 187 224 230 248 255 245 254 247 243 241 241 241 242 239 239 240 245 244 246 243 245 252 249 243 240 237 252 251 251 251 253 255 251 249 252 253 251 252 252 255 258 259 259 264 267
276 226 233 229 228 249 241 253 257 252 251 254 244 238 236 238 243 246 246 244 240 238 241 246 249 249 238 236 237 240 245 255 254 259 261 261 259 252 251 256 255 253 254 255 257 259 262 264 262
242 243 230 238 238 233 267 262 262 255 250 245 241 245 245 248 248 245 241 240 240 244 244 253 245 242 243 240 243 243 242 254 263 262 264 265 263 260 251 252 256 254 255 257 255 255 256 260 251
229 229 234 239 205 250 281 275 256 248 241 239 241 242 243 242 246 244 243 244 246 246 250 247 238 240 244 249 245 241 241 245 252 263 272 271 267 265 262 255 253 256 250 258 262 257 254 259 265
236 232 244 249 233 250 190 281 272 258 225 217 236 239 240 243 245 246 247 247 244 242 237 236 239 242 242 241 242 243 248 254 263 269 273 271 269 265 261 256 253 254 255 255 265 265 262 260 262
245 236 209 221 236 266 248 263 266 231 244 224 203 225 233 236 237 240 243 249 242 235 241 242 243 243 240 239 241 246 251 259 267 257 253 257 262 264 266 266 264 259 257 257 257 263 262 260 263
191 160 164 202 225 244 228 222 266 243 253 252 232 225 228 231 237 243 240 238 245 248 245 240 239 239 241 245 250 253 257 263 261 260 253 250 260 262 264 262 256 256 257 257 259 259 261 261 260
191 169 184 207 203 240 207 219 245 331 280 322 308 267 215 238 238 237 247 248 241 235 237 237 241 246 246 251 253 255 256 254 253 255 255 255 260 262 264 263 264 259 260 259 259 261 261 266 266
208 215 206 217 222 257 210 237 236 251 279 267 240 225 217 236 243 229 226 225 233 240 244 246 247 246 249 249 248 247 248 251 251 253 251 251 254 259 258 261 263 265 262 260 262 263 263 264 262
196 214 224 270 194 296 234 251 274 268 248 254 252 237 242 241 241 232 247 243 237 247 244 242 242 239 240 240 242 245 247 245 241 243 249 251 249 248 253 255 258 260 261 262 263 263 264 265 266
222 192 203 223 226 231 239 239 243 163 217 252 253 254 258 258 237 244 246 238 235 244 246 238 231 228 229 230 232 235 237 240 246 253 259 264 267 269 269 271 273 274 272 272 269 270 269 267 269
212 221 222 222 230 233 251 250 246 255 255 249 244 253 258 259 233 237 239 240 241 238 230 222 218 217 220 223 225 230 234 237 246 259 267 272 275 278 277 277 278 279 280 279 279 282 285 282 279
214 212 202 211 203 230 254 254 263 61 14 319 266 264 261 240 232 229 231 235 233 219 211 211 214 215 215 212 209 215 226 240 252 258 262 267 271 275 279 282 282 283 283 284 284 283 280 278 279
Wind_Speed_850mb
39 33 16 10 12 6 8 9 4 8 6 8 4 11 20 15 18 8 20 14 23 26 20 21 22 20 17 14 11 12 11 19 20 19 18 14 8 10 9 11 14 22 17 17 11 15 18 20 21
37 30 11 15 14 13 14 13 10 7 10 8 5 2 5 12 13 14 22 20 25 24 21 21 20 20 14 8 7 12 9 7 9 14 16 18 18 12 13 13 19 17 14 16 18 12 16 17 19
33 18 15 8 9 4 10 9 18 15 14 5 4 2 6 9 9 21 13 26 25 23 21 23 25 23 12 5 3 8 11 9 6 4 9 14 21 14 14 17 18 15 11 14 18 14 11 15 16
25 7 11 17 10 7 10 15 21 22 13 6 2 10 9 8 11 14 22 27 26 24 22 25 28 25 15 8 4 4 11 15 9 2 11 12 17 16 13 20 18 17 11 11 15 11 10 11 12
15 12 15 16 10 9 9 15 19 19 17 15 9 12 8 8 14 18 24 27 26 24 20 24 27 22 14 9 7 9 13 15 14 6 5 4 15 15 16 13 17 18 12 8 11 10 8 7 8
15 7 15 19 19 12 10 17 16 15 13 15 11 11 12 14 19 20 24 25 24 24 23 24 24 21 16 11 8 7 15 18 17 14 9 7 5 15 14 18 16 18 16 15 9 9 6 5 3
15 13 24 20 18 18 13 16 18 16 16 16 8 11 13 17 18 21 25 25 24 25 28 25 26 24 18 14 10 10 12 20 21 15 16 12 8 9 15 15 15 15 17 17 14 11 10 9 7
10 10 22 22 22 25 16 17 7 12 14 14 10 12 17 22 21 24 26 24 23 24 23 25 23 24 22 19 15 10 10 14 19 18 17 17 16 15 15 18 18 18 17 19 17 15 14 14 13
6 11 21 31 29 25 20 19 11 3 6 14 14 8 20 26 24 25 24 25 26 27 30 32 26 24 21 19 21 18 15 13 15 18 18 21 19 15 16 17 19 17 18 18 18 18 20 20 19
16 17 27 27 23 26 22 24 20 13 21 19 16 13 19 22 27 28 28 29 31 32 31 31 32 32 28 26 26 22 21 19 17 19 21 22 16 15 20 24 23 25 23 22 22 24 24 24 24
11 20 27 12 23 17 23 24 16 21 19 26 29 25 22 25 28 28 26 26 27 27 29 32 31 30 30 32 29 25 26 23 23 24 24 24 28 29 32 29 28 27 28 28 27 29 29 29 26
16 24 16 9 12 12 21 22 20 30 22 3 11 21 25 27 29 30 29 28 26 26 27 29 33 33 32 30 31 30 31 31 30 29 29 29 29 32 30 29 30 30 28 28 29 31 30 30 33
25 23 16 18 13 15 10 23 27 29 31 10 15 20 24 24 27 27 26 25 26 27 27 26 27 32 33 34 34 33 34 35 33 32 34 35 33 32 30 33 34 38 34 36 35 35 35 36 38
4 24 20 14 23 14 15 29 24 27 29 28 24 23 25 26 28 27 29 29 30 27 27 27 28 29 30 34 35 35 36 35 35 37 37 40 40 39 37 36 37 38 40 39 40 39 39 41 42
13 11 23 26 18 17 16 35 48 42 24 37 38 34 32 31 28 32 30 31 29 29 28 29 30 31 35 33 37 40 38 40 42 40 39 42 44 46 45 44 44 42 40 40 42 45 46 48 48
11 11 16 14 31 14 18 35 31 56 50 51 44 48 48 44 40 35 32 30 30 30 31 31 34 35 38 41 40 41 41 41 40 43 45 47 45 46 48 50 51 49 47 46 46 47 49 50 50
17 18 29 13 27 17 29 26 22 24 30 54 59 57 53 49 48 45 40 36 33 32 34 36 40 42 42 44 44 45 43 44 43 44 46 44 48 48 49 51 50 48 51 54 53 51 50 49 50
24 30 23 25 13 28 27 39 24 11 27 37 41 51 54 55 55 49 46 43 42 44 43 42 44 47 47 47 46 46 51 49 49 49 52 50 48 52 52 52 51 50 51 53 54 52 51 52 51
9 25 27 24 10 13 34 40 40 47 49 40 43 42 43 49 49 49 50 49 48 41 42 50 49 43 44 47 47 47 47 46 47 48 51 50 50 51 57 57 55 53 55 56 53 50 52 55 50
38 27 28 10 8 12 26 39 38 39 51 58 60 55 51 48 47 46 43 44 47 50 51 54 55 47 47 44 43 44 38 44 44 45 47 47 49 50 53 58 61 57 54 55 56 55 58 59 52
39 40 30 21 3 19 25 44 44 40 64 67 66 64 58 57 57 49 49 49 49 52 55 51 51 55 53 51 46 44 44 41 39 46 54 55 55 54 52 54 59 60 56 65 66 66 65 68 66
40 30 35 30 13 17 15 23 32 22 36 30 51 60 58 57 59 57 53 47 44 47 41 53 52 55 57 55 55 53 51 50 49 49 52 53 55 56 54 50 53 59 61 67 68 67 68 66 72
22 26 24 28 29 22 37 18 25 24 37 30 32 36 43 45 43 45 42 40 37 37 49 43 47 53 53 56 59 58 59 58 58 47 46 51 52 55 54 52 52 56 59 63 65 68 65 67 69
12 16 14 13 15 17 37 32 41 34 38 26 23 25 37 38 34 35 28 31 41 37 42 44 46 46 47 50 52 54 56 57 56 54 50 51 53 50 51 54 54 57 57 59 60 60 65 65 68
33 29 11 12 13 24 9 28 50 10 16 13 12 19 24 25 31 32 32 34 32 33 35 41 43 43 47 51 55 56 57 55 52 49 48 43 45 44 46 48 51 52 54 55 56 56 58 63 68
40 32 12 18 20 22 28 21 29 9 22 35 36 17 24 30 23 27 24 24 24 32 33 38 41 45 49 51 53 52 49 47 43 41 39 35 34 33 32 35 39 43 47 49 53 56 59 60 64
25 30 41 28 1 5 21 37 36 33 25 17 22 33 35 31 28 31 28 32 36 35 32 36 40 43 41 36 33 32 33 33 35 37 38 37 37 38 40 38 38 40 42 43 47 51 55 58 60
46 22 23 23 17 32 30 41 28 5 11 15 29 39 41 35 32 38 39 32 34 36 38 39 37 33 29 27 26 24 22 21 21 22 24 26 29 31 34 36 38 40 41 42 43 50 53 55 56
30 32 19 19 23 20 28 28 38 34 28 25 22 25 29 31 26 27 32 34 35 36 34 33 31 30 29 28 27 25 22 20 18 19 21 24 27 30 32 34 36 39 42 44 48 51 52 55 58
48 51 43 19 28 24 33 34 14 4 11 16 32 37 26 23 26 25 29 34 33 32 33 33 33 31 29 26 23 21 18 18 20 22 24 27 29 32 34 35 36 36 37 40 43 46 50 52 53
Wind_Direction_850mb
341 341 315 268 245 232 127 113 48 136 181 78 62 320 9 21 1 33 143 145 140 145 163 162 162 164 159 148 141 137 149 172 182 185 179 177 197 188 179 147 134 112 108 113 98 94 87 90 94
339 338 285 272 261 229 103 124 154 118 78 107 112 234 234 82 58 112 138 151 146 146 149 164 165 167 165 167 140 136 143 136 172 196 199 195 192 202 188 158 140 141 127 109 118 129 89 94 96
339 313 279 274 281 313 105 155 117 128 137 153 165 331 25 67 79 138 141 153 149 149 147 179 165 167 171 166 124 145 152 125 121 102 172 183 164 172 193 174 158 146 147 116 118 130 96 94 99
335 266 234 253 223 65 102 124 133 148 160 180 179 138 103 89 126 151 150 154 151 151 167 167 166 172 172 165 117 114 156 157 162 81 169 152 162 174 165 173 159 167 164 146 125 140 111 105 111
304 257 262 249 206 131 128 125 155 165 150 154 189 109 97 124 142 146 156 156 158 157 180 173 171 178 181 175 148 137 172 177 184 205 203 190 179 185 174 174 172 175 191 174 150 153 141 126 121
295 276 245 234 215 165 166 160 170 172 147 133 179 134 105 148 145 152 158 161 165 164 179 181 187 193 193 187 174 174 171 184 204 209 192 238 223 191 192 194 192 187 201 199 194 177 181 181 174
284 269 259 272 208 190 179 175 194 181 162 163 134 146 121 159 164 165 163 167 172 174 181 191 195 201 205 207 209 194 188 188 205 210 204 212 235 241 221 207 214 209 211 209 225 207 214 227 241
272 270 257 238 238 213 154 185 212 220 159 133 175 169 156 169 166 160 165 176 178 181 189 188 199 205 211 214 218 224 227 215 209 215 198 206 230 240 229 233 224 220 222 228 229 235 239 245 254
260 245 239 236 232 218 154 208 184 209 197 201 175 120 131 157 166 163 171 183 187 191 206 185 198 215 206 223 219 218 222 234 231 229 220 210 224 248 252 249 251 252 243 243 246 248 253 258 263
227 233 240 252 239 236 191 215 194 208 202 199 178 151 160 166 173 180 185 189 195 203 205 203 199 206 209 209 232 227 226 227 227 232 235 230 223 238 227 241 236 240 247 248 252 254 256 261 268
214 239 243 271 270 253 205 211 201 221 223 220 202 189 176 175 185 194 196 203 202 206 213 214 212 209 216 214 225 226 226 232 228 227 228 231 225 229 235 241 241 242 246 248 254 254 257 262 262
246 242 261 293 236 242 217 225 212 224 222 64 187 176 181 184 194 200 202 204 208 204 210 222 218 219 216 219 228 226 227 233 238 237 234 232 235 235 245 250 254 251 249 258 251 260 261 259 260
236 248 254 243 252 244 281 235 232 225 231 192 189 179 189 195 198 202 206 212 211 215 215 224 225 224 224 228 231 226 235 236 238 235 242 245 242 242 245 247 252 259 255 258 261 262 262 266 268
354 251 245 254 237 241 258 247 233 236 229 222 215 209 207 208 204 205 207 211 214 217 221 224 231 232 232 232 236 238 241 241 240 237 240 241 243 248 250 249 252 251 258 255 258 259 263 267 268
253 266 234 241 237 239 247 257 243 237 240 238 231 228 224 221 215 215 216 215 217 223 226 229 230 233 233 244 238 240 242 241 244 246 244 247 246 244 246 251 254 256 256 260 260 262 263 265 270
231 237 234 215 212 219 198 258 237 235 236 242 240 236 235 233 231 229 223 222 223 222 227 232 238 241 243 238 246 242 244 245 247 249 244 242 244 245 246 250 252 253 255 257 260 262 264 266 268
211 245 222 231 208 215 203 263 263 225 235 240 240 239 240 240 239 235 233 232 228 231 237 235 242 250 247 245 237 249 247 248 250 249 251 247 247 249 246 247 253 255 255 257 260 261 262 263 267
223 223 237 228 187 224 230 248 255 245 254 247 243 241 241 241 242 239 239 240 245 244 246 243 245 252 249 243 240 237 252 251 251 251 253 255 251 249 252 253 251 252 252 255 258 259 259 264 267
276 226 233 229 228 249 241 253 257 252 251 254 244 238 236 238 243 246 246 244 240 238 241 246 249 249 238 236 237 240 245 255 254 259 261 261 259 252 251 256 255 253 254 255 257 259 262 264 262
242 243 230 238 238 233 267 262 262 255 250 245 241 245 245 248 248 245 241 240 240 244 244 253 245 242 243 240 243 243 242 254 263 262 264 265 263 260 251 252 256 254 255 257 255 255 256 260 251
229 229 234 239 205 250 281 275 256 248 241 239 241 242 243 242 246 244 243 244 246 246 250 247 238 240 244 249 245 241 241 245 252 263 272 271 267 265 262 255 253 256 250 258 262 257 254 259 265
236 232 244 249 233 250 190 281 272 258 225 217 236 239 240 243 245 246 247 247 244 242 237 236 239 242 242 241 242 243 248 254 263 269 273 271 269 265 261 256 253 254 255 255 265 265 262 260 262
245 236 209 221 236 266 248 263 266 231 244 224 203 225 233 236 237 240 243 249 242 235 241 242 243 243 240 239 241 246 251 259 267 257 253 257 262 264 266 266 264 259 257 257 257 263 262 260 263
191 160 164 202 225 244 228 222 266 243 253 252 232 225 228 231 237 243 240 238 245 248 245 240 239 239 241 245 250 253 257 263 261 260 253 250 260 262 264 262 256 256 257 257 259 259 261 261 260
191 169 184 207 203 240 207 219 245 331 280 322 308 267 215 238 238 237 247 248 241 235 237 237 241 246 246 251 253 255 256 254 253 255 255 255 260 262 264 263 264 259 260 259 259 261 261 266 266
208 215 206 217 222 257 210 237 236 251 279 267 240 225 217 236 243 229 226 225 233 240 244 246 247 246 249 249 248 247 248 251 251 253 251 251 254 259 258 261 263 265 262 260 262 263 263 264 262
196 214 224 270 194 296 234 251 274 268 248 254 252 237 242 241 241 232 247 243 237 247 244 242 242 239 240 240 242 245 247 245 241 243 249 251 249 248 253 255 258 260 261 262 263 263 264 265 266
222 192 203 223 226 231 239 239 243 163 217 252 253 254 258 258 237 244 246 238 235 244 246 238 231 228 229 230 232 235 237 240 246 253 259 264 267 269 269 271 273 274 272 272 269 270 269 267 269
212 221 222 222 230 233 251 250 246 255 255 249 244 253 258 259 233 237 239 240 241 238 230 222 218 217 220 223 225 230 234 237 246 259 267 272 275 278 277 277 278 279 280 279 279 282 285 282 279
214 212 202 211 203 230 254 254 263 61 14 319 266 264 261 240 232 229 231 235 233 219 211 211 214 215 215 212 209 215 226 240 252 258 262 267 271 275 279 282 282 283 283 284 284 283 280 278 279